TimePST,TemperatureF,Dew PointF,Humidity,Sea Level PressureIn,VisibilityMPH,Wind Direction,Wind SpeedMPH,Gust SpeedMPH,PrecipitationIn,Events,Conditions,WindDirDegrees,DateUTC
12:12 AM,53.6,41.0,62,30.00,10.0,SSE,5.8,-,N/A,,Overcast,160,2013-02-19 08:12:00
12:53 AM,53.1,39.9,61,30.00,10.0,SSE,4.6,-,N/A,,Overcast,160,2013-02-19 08:53:00
1:53 AM,53.1,39.9,61,29.98,10.0,East,8.1,-,N/A,,Overcast,100,2013-02-19 09:53:00
2:53 AM,53.1,39.0,59,29.97,10.0,ESE,8.1,-,N/A,,Overcast,120,2013-02-19 10:53:00
3:53 AM,53.1,39.0,59,29.95,10.0,East,8.1,-,N/A,,Overcast,100,2013-02-19 11:53:00
4:53 AM,53.1,39.0,59,29.96,10.0,ESE,8.1,-,N/A,,Overcast,120,2013-02-19 12:53:00
5:53 AM,53.1,37.9,57,29.96,10.0,ESE,8.1,-,N/A,,Mostly Cloudy,110,2013-02-19 13:53:00
6:53 AM,53.1,37.0,55,29.96,10.0,Variable,4.6,-,N/A,,Overcast,0,2013-02-19 14:53:00
7:53 AM,53.1,37.0,55,29.95,10.0,SE,8.1,-,N/A,,Overcast,140,2013-02-19 15:53:00
8:53 AM,54.0,39.0,57,29.96,10.0,SE,5.8,-,N/A,,Overcast,140,2013-02-19 16:53:00
10:53 AM,52.0,44.1,74,29.94,10.0,SE,11.5,-,0.00,Rain,Light Rain,130,2013-02-19 18:53:00
11:53 AM,53.1,46.0,77,29.92,10.0,ESE,9.2,-,0.00,,Overcast,120,2013-02-19 19:53:00
12:22 PM,51.8,46.4,82,29.91,3.0,SE,6.9,-,0.00,Rain,Light Rain,140,2013-02-19 20:22:00
12:53 PM,53.1,46.0,77,29.89,4.0,South,3.5,-,0.01,Rain,Light Rain,180,2013-02-19 20:53:00
1:53 PM,55.0,42.1,62,29.87,10.0,West,10.4,-,0.01,,Mostly Cloudy,270,2013-02-19 21:53:00
2:53 PM,55.0,42.1,62,29.86,10.0,West,10.4,-,N/A,,Mostly Cloudy,260,2013-02-19 22:53:00
4:53 PM,53.1,41.0,64,29.82,10.0,WSW,9.2,-,N/A,,Mostly Cloudy,250,2013-02-20 00:53:00
5:21 PM,53.6,39.2,58,29.82,10.0,WSW,10.4,-,N/A,,Overcast,250,2013-02-20 01:21:00
5:53 PM,53.1,37.9,57,29.82,10.0,West,9.2,-,N/A,,Overcast,260,2013-02-20 01:53:00
6:00 PM,53.6,37.4,54,29.81,10.0,WSW,6.9,-,N/A,,Overcast,250,2013-02-20 02:00:00
6:53 PM,53.1,39.9,61,29.81,10.0,West,9.2,-,N/A,,Overcast,260,2013-02-20 02:53:00
7:53 PM,52.0,43.0,71,29.79,10.0,SW,9.2,-,0.00,,Overcast,230,2013-02-20 03:53:00
8:53 PM,50.0,43.0,77,29.77,10.0,SW,5.8,-,0.01,,Mostly Cloudy,220,2013-02-20 04:53:00
9:53 PM,50.0,44.1,80,29.76,8.0,WSW,10.4,-,0.00,Rain,Light Rain,240,2013-02-20 05:53:00
10:04 PM,46.4,42.8,87,29.76,2.5,WSW,6.9,17.3,0.00,Rain,Light Rain,250,2013-02-20 06:04:00
10:06 PM,46.4,42.8,87,29.76,4.0,Variable,5.8,-,0.00,Rain,Light Rain,0,2013-02-20 06:06:00
10:53 PM,48.9,44.1,83,29.74,10.0,Variable,5.8,-,0.01,Rain,Light Rain,0,2013-02-20 06:53:00
11:53 PM,50.0,39.9,68,29.73,10.0,West,9.2,16.1,0.00,,Mostly Cloudy,280,2013-02-20 07:53:00